Location: Batang Balui
(2.7000°N, 113.7833°E)
Time: 20:15:20
(UTC+00:00)

Envisat - Pass Details

Date: 16 December 2022
Orbit: 763 x 765 km, 98.2° (Epoch: 29 January)

Event Time Altitude Azimuth Distance (km) Brightness Sun altitude
Exits shadow 19:57:09 36° 145° (SE) 1,201 4.3 -33.8°
Drops below altitude 10° 20:00:30 10° 174° (S) 2,296 5.8 -33.0°
Sets 20:02:53 0° 180° (S) 3,223 6.5 -32.5°
